Simultaneous Nadir Overpasses (SNOs) Predictions

Prediction of SNOs between GOES-16 and AQUA Satellite Orbit:

Table of predicted SNOs for the next 14.0 days since TLE Epoch: 4/19/2019
Index Date Time (GOES-16) GOES-16 Lat,Lon AQUA Lat,Lon Distance(km) Time Diff (sec)
1 04/20/2019 18:35:42 -0.00, -75.20 0.10, -74.64 62.80 80
2 04/22/2019 18:23:29 -0.00, -75.21 0.74, -71.68 400.31 80
3 04/23/2019 06:44:45 0.00, -75.21 0.33, -76.85 186.30 80
4 04/25/2019 06:29:51 0.00, -75.22 -0.25, -73.88 151.86 80
5 04/25/2019 18:51:15 -0.00, -75.22 -0.81, -79.07 437.49 80
6 04/27/2019 06:17:38 -0.00, -75.24 -0.90, -70.92 490.57 80
7 04/27/2019 18:39:02 0.00, -75.24 -0.16, -76.12 98.56 80
8 04/29/2019 18:29:28 0.00, -75.27 0.42, -73.14 241.16 80
9 04/30/2019 06:50:44 -0.00, -75.28 0.63, -78.31 344.45 80
10 05/02/2019 06:38:31 -0.00, -75.31 -0.02, -75.35 4.93 80




NCC Satellite Simultaneous Nadir Overpasses (SNOs) Prediction Service
